Time,TemperatureF,DewpointF,PressureIn,WindDirection,WindDirectionDegrees,WindSpeedMPH,WindSpeedGustMPH,Humidity,HourlyPrecipIn,Conditions,Clouds,dailyrainin,SoftwareType,DateUTC
2017-02-23 00:03:00,45.3,35.8,30.24,WNW,282,2.9,7.0,69,0.00,,,0.00,meteobridge,2017-02-23 08:03:00,
2017-02-23 00:08:00,45.3,36.1,30.24,NW,326,4.0,7.0,70,0.00,,,0.00,meteobridge,2017-02-23 08:08:00,
2017-02-23 00:13:00,45.3,36.1,30.24,NW,314,2.9,7.0,70,0.00,,,0.00,meteobridge,2017-02-23 08:13:00,
2017-02-23 00:18:00,45.3,35.4,30.24,WNW,301,2.9,6.0,68,0.00,,,0.00,meteobridge,2017-02-23 08:18:00,
2017-02-23 00:23:00,45.1,34.9,30.24,NW,309,4.9,5.0,67,0.00,,,0.00,meteobridge,2017-02-23 08:23:00,
2017-02-23 00:29:00,45.1,34.9,30.24,NNW,332,2.9,5.0,67,0.00,,,0.00,meteobridge,2017-02-23 08:29:00,
2017-02-23 00:34:00,45.1,34.5,30.24,NW,322,2.9,5.0,66,0.00,,,0.00,meteobridge,2017-02-23 08:34:00,
2017-02-23 00:39:00,45.1,34.9,30.24,North,349,2.9,5.0,67,0.00,,,0.00,meteobridge,2017-02-23 08:39:00,
2017-02-23 00:44:00,45.1,34.9,30.23,NW,318,4.0,6.0,67,0.00,,,0.00,meteobridge,2017-02-23 08:44:00,
2017-02-23 00:49:00,45.1,35.2,30.23,NW,321,4.0,6.0,68,0.00,,,0.00,meteobridge,2017-02-23 08:49:00,
2017-02-23 00:54:00,45.0,35.1,30.23,NNW,341,2.0,4.0,68,0.00,,,0.00,meteobridge,2017-02-23 08:54:00,
2017-02-23 00:59:00,44.8,34.9,30.23,NNW,344,2.9,5.0,68,0.00,,,0.00,meteobridge,2017-02-23 08:59:00,
2017-02-23 01:04:00,44.8,34.9,30.23,WNW,289,4.0,6.0,68,0.00,,,0.00,meteobridge,2017-02-23 09:04:00,
2017-02-23 01:09:00,45.1,34.5,30.23,NW,323,0.9,7.0,66,0.00,,,0.00,meteobridge,2017-02-23 09:09:00,
2017-02-23 01:14:00,45.1,34.9,30.23,WNW,299,6.0,7.0,67,0.00,,,0.00,meteobridge,2017-02-23 09:14:00,
2017-02-23 01:19:00,45.1,35.2,30.23,NW,312,4.9,5.0,68,0.00,,,0.00,meteobridge,2017-02-23 09:19:00,
2017-02-23 01:25:00,45.1,34.2,30.23,NNW,328,2.9,6.0,65,0.00,,,0.00,meteobridge,2017-02-23 09:25:00,
2017-02-23 01:30:00,45.1,33.6,30.23,NW,314,0.9,6.0,64,0.00,,,0.00,meteobridge,2017-02-23 09:30:00,
2017-02-23 01:35:00,45.1,34.2,30.23,NNW,330,4.0,6.0,65,0.00,,,0.00,meteobridge,2017-02-23 09:35:00,
2017-02-23 01:40:00,45.0,34.3,30.23,NW,311,2.0,6.0,66,0.00,,,0.00,meteobridge,2017-02-23 09:40:00,
2017-02-23 01:45:00,44.8,34.9,30.23,NW,312,2.0,3.0,68,0.00,,,0.00,meteobridge,2017-02-23 09:45:00,
2017-02-23 01:50:00,44.4,34.2,30.23,West,276,0.9,5.0,67,0.00,,,0.00,meteobridge,2017-02-23 09:50:00,
2017-02-23 01:55:00,44.6,34.3,30.23,WNW,290,0.9,5.0,67,0.00,,,0.00,meteobridge,2017-02-23 09:55:00,
2017-02-23 02:00:00,44.6,34.3,30.23,NW,311,4.0,5.0,67,0.00,,,0.00,meteobridge,2017-02-23 10:00:00,
2017-02-23 02:05:00,44.8,34.5,30.23,WNW,285,2.0,6.0,67,0.00,,,0.00,meteobridge,2017-02-23 10:05:00,
2017-02-23 02:10:00,44.8,35.2,30.23,WNW,283,4.0,6.0,69,0.00,,,0.00,meteobridge,2017-02-23 10:10:00,
2017-02-23 02:15:00,44.4,34.9,30.23,NW,326,4.0,4.0,69,0.00,,,0.00,meteobridge,2017-02-23 10:15:00,
2017-02-23 02:20:00,44.4,34.5,30.23,NW,304,2.0,6.0,68,0.00,,,0.00,meteobridge,2017-02-23 10:20:00,
2017-02-23 02:25:00,44.4,34.5,30.23,WNW,297,4.0,6.0,68,0.00,,,0.00,meteobridge,2017-02-23 10:25:00,
2017-02-23 02:30:00,44.4,34.9,30.23,NNW,344,4.0,4.0,69,0.00,,,0.00,meteobridge,2017-02-23 10:30:00,
2017-02-23 02:35:00,44.4,35.2,30.23,West,277,2.9,4.0,70,0.00,,,0.00,meteobridge,2017-02-23 10:35:00,
2017-02-23 02:40:00,44.2,34.7,30.22,West,275,4.0,6.0,69,0.00,,,0.00,meteobridge,2017-02-23 10:40:00,
2017-02-23 02:45:00,44.1,34.2,30.22,North,2,2.0,5.0,68,0.00,,,0.00,meteobridge,2017-02-23 10:45:00,
2017-02-23 02:50:00,44.1,34.9,30.22,NNW,336,0.0,4.0,70,0.00,,,0.00,meteobridge,2017-02-23 10:50:00,
2017-02-23 02:52:00,44.1,34.9,30.22,WNW,290,2.9,4.0,70,0.00,,,0.00,meteobridge,2017-02-23 10:52:00,
2017-02-23 02:57:00,44.1,34.5,30.22,WNW,295,2.9,5.0,69,0.00,,,0.00,meteobridge,2017-02-23 10:57:00,
2017-02-23 03:02:00,43.9,34.3,30.22,West,279,2.0,3.0,69,0.00,,,0.00,meteobridge,2017-02-23 11:02:00,
2017-02-23 03:07:00,43.9,34.3,30.23,WNW,297,0.9,6.0,69,0.00,,,0.00,meteobridge,2017-02-23 11:07:00,
2017-02-23 03:12:00,43.9,34.3,30.22,WNW,303,4.0,4.0,69,0.00,,,0.00,meteobridge,2017-02-23 11:12:00,
2017-02-23 03:17:00,43.9,34.3,30.22,NW,315,2.0,5.0,69,0.00,,,0.00,meteobridge,2017-02-23 11:17:00,
2017-02-23 03:22:00,43.9,34.0,30.22,WNW,301,2.0,5.0,68,0.00,,,0.00,meteobridge,2017-02-23 11:22:00,
2017-02-23 03:27:00,43.9,34.0,30.22,NW,311,0.0,4.0,68,0.00,,,0.00,meteobridge,2017-02-23 11:27:00,
2017-02-23 03:32:00,43.9,34.7,30.22,WNW,294,2.9,4.0,70,0.00,,,0.00,meteobridge,2017-02-23 11:32:00,
2017-02-23 03:37:00,43.9,34.3,30.23,WNW,293,4.0,5.0,69,0.00,,,0.00,meteobridge,2017-02-23 11:37:00,
2017-02-23 03:42:00,43.7,33.8,30.23,WNW,287,2.9,5.0,68,0.00,,,0.00,meteobridge,2017-02-23 11:42:00,
2017-02-23 03:47:00,43.7,34.2,30.23,NNE,16,2.0,3.0,69,0.00,,,0.00,meteobridge,2017-02-23 11:47:00,
2017-02-23 03:53:00,43.5,34.3,30.23,WNW,298,2.0,5.0,70,0.00,,,0.00,meteobridge,2017-02-23 11:53:00,
2017-02-23 03:58:00,43.5,34.0,30.23,NW,317,2.9,4.0,69,0.00,,,0.00,meteobridge,2017-02-23 11:58:00,
2017-02-23 04:03:00,43.5,34.3,30.23,NNW,328,2.0,4.0,70,0.00,,,0.00,meteobridge,2017-02-23 12:03:00,
2017-02-23 04:08:00,43.5,34.7,30.23,WNW,297,0.9,4.0,71,0.00,,,0.00,meteobridge,2017-02-23 12:08:00,
2017-02-23 04:13:00,43.5,34.3,30.23,WNW,300,2.0,3.0,70,0.00,,,0.00,meteobridge,2017-02-23 12:13:00,
2017-02-23 04:18:00,43.5,34.3,30.23,West,281,0.9,4.0,70,0.00,,,0.00,meteobridge,2017-02-23 12:18:00,
2017-02-23 04:23:00,43.5,34.3,30.23,NW,320,2.9,5.0,70,0.00,,,0.00,meteobridge,2017-02-23 12:23:00,
2017-02-23 04:28:00,43.5,34.3,30.23,NW,316,2.9,4.0,70,0.00,,,0.00,meteobridge,2017-02-23 12:28:00,
2017-02-23 04:33:00,43.5,34.3,30.23,WNW,293,2.9,3.0,70,0.00,,,0.00,meteobridge,2017-02-23 12:33:00,
2017-02-23 04:38:00,43.5,34.3,30.23,NNW,342,0.9,3.0,70,0.00,,,0.00,meteobridge,2017-02-23 12:38:00,
2017-02-23 04:43:00,43.3,34.5,30.23,NW,309,0.9,2.0,71,0.00,,,0.00,meteobridge,2017-02-23 12:43:00,
2017-02-23 04:48:00,42.8,33.6,30.23,North,359,0.9,1.0,70,0.00,,,0.00,meteobridge,2017-02-23 12:48:00,
2017-02-23 04:54:00,42.4,33.4,30.23,NNE,18,0.0,1.0,70,0.00,,,0.00,meteobridge,2017-02-23 12:54:00,
2017-02-23 04:59:00,42.3,33.6,30.23,North,359,0.0,1.0,71,0.00,,,0.00,meteobridge,2017-02-23 12:59:00,
2017-02-23 05:04:00,42.3,33.8,30.23,WNW,288,0.0,2.0,72,0.00,,,0.00,meteobridge,2017-02-23 13:04:00,